TimeMDT,TemperatureF,Dew PointF,Humidity,Sea Level PressureIn,VisibilityMPH,Wind Direction,Wind SpeedMPH,Gust SpeedMPH,PrecipitationIn,Events,Conditions,WindDirDegrees,DateUTC
12:53 AM,41.0,25.0,53,30.18,10.0,ENE,8.1,-,N/A,,Clear,60,2012-10-05 06:53:00
1:53 AM,39.9,26.1,58,30.18,10.0,ENE,8.1,-,N/A,,Clear,60,2012-10-05 07:53:00
2:53 AM,39.9,26.1,58,30.13,10.0,SE,6.9,-,N/A,,Clear,130,2012-10-05 08:53:00
3:53 AM,37.0,25.0,62,30.12,10.0,South,3.5,-,N/A,,Clear,190,2012-10-05 09:53:00
4:53 AM,37.0,26.1,65,30.12,10.0,East,4.6,-,N/A,,Clear,100,2012-10-05 10:53:00
5:53 AM,34.0,25.0,70,30.13,10.0,NNE,6.9,-,N/A,,Clear,20,2012-10-05 11:53:00
6:53 AM,35.1,26.1,70,30.15,10.0,North,11.5,-,N/A,,Clear,10,2012-10-05 12:53:00
7:53 AM,39.0,27.0,62,30.18,10.0,NNE,10.4,-,N/A,,Clear,20,2012-10-05 13:53:00
8:53 AM,41.0,28.0,60,30.18,10.0,ESE,8.1,-,N/A,,Clear,110,2012-10-05 14:53:00
9:53 AM,44.1,28.9,55,30.16,10.0,Calm,Calm,-,N/A,,Clear,0,2012-10-05 15:53:00
10:46 AM,44.6,30.2,57,30.20,10.0,SE,3.5,-,N/A,,Mostly Cloudy,130,2012-10-05 16:46:00
10:53 AM,46.4,30.2,53,30.20,10.0,NE,5.8,-,N/A,,Mostly Cloudy,50,2012-10-05 16:53:00
11:53 AM,46.9,30.9,54,30.15,10.0,East,6.9,-,N/A,,Overcast,90,2012-10-05 17:53:00
12:53 PM,50.0,30.9,48,30.13,10.0,Variable,6.9,-,N/A,,Scattered Clouds,0,2012-10-05 18:53:00
1:53 PM,50.0,30.9,48,30.13,10.0,ENE,12.7,21.9,N/A,,Overcast,60,2012-10-05 19:53:00
2:53 PM,48.9,30.9,50,30.14,10.0,ENE,16.1,-,N/A,,Overcast,70,2012-10-05 20:53:00
3:53 PM,46.9,30.9,54,30.19,10.0,ENE,18.4,-,N/A,,Overcast,60,2012-10-05 21:53:00
4:53 PM,45.0,30.0,56,30.20,10.0,East,15.0,-,N/A,,Overcast,90,2012-10-05 22:53:00
5:53 PM,44.1,30.0,58,30.24,10.0,East,15.0,-,N/A,,Overcast,100,2012-10-05 23:53:00
6:53 PM,42.1,28.9,60,30.27,10.0,ESE,13.8,-,N/A,,Overcast,110,2012-10-06 00:53:00
7:53 PM,41.0,28.9,62,30.28,10.0,ESE,13.8,-,N/A,,Overcast,110,2012-10-06 01:53:00
8:36 PM,41.0,28.4,61,30.29,10.0,ESE,12.7,-,N/A,,Overcast,120,2012-10-06 02:36:00
8:53 PM,39.9,28.9,65,30.29,10.0,ESE,11.5,-,N/A,,Overcast,110,2012-10-06 02:53:00
9:53 PM,39.0,30.0,70,30.28,10.0,ESE,12.7,-,N/A,,Overcast,110,2012-10-06 03:53:00
10:44 PM,37.4,33.8,87,30.28,6.0,ESE,8.1,-,N/A,,Overcast,120,2012-10-06 04:44:00
10:53 PM,36.0,34.0,93,30.28,4.0,SE,9.2,-,N/A,,Overcast,130,2012-10-06 04:53:00
11:06 PM,35.6,33.8,93,30.28,3.0,ESE,9.2,-,N/A,,Overcast,120,2012-10-06 05:06:00
11:13 PM,35.6,33.8,93,30.27,3.0,SE,8.1,-,N/A,,Overcast,130,2012-10-06 05:13:00
11:53 PM,36.0,35.1,97,30.25,3.0,ESE,9.2,-,N/A,,Overcast,120,2012-10-06 05:53:00